Regional Weather Roundup
Issued by NWS

Home | Current Version | Previous Version | Graphics & Text | Print | Product List | Glossary On
Versions: 1 2 3 4 5 6 7 8 9 10 11 12 13 14 15 16 17 18 19 20 21 22 23 24 25 26 27 28 29 30 31 32 33 34 35 36 37 38 39 40 41 42 43 44 45 46 47 48 49 50
765
ASUS43 KTOP 300608
RWRKS

WEATHER ROUNDUP FOR KANSAS
NATIONAL WEATHER SERVICE GOODLAND KS
100 AM CDT TUE AUG 30 2016

NOTE:  "FAIR" INDICATES FEW OR NO CLOUDS BELOW 12,000 FEET WITH NO
SIGNIFICANT WEATHER AND/OR OBSTRUCTIONS TO VISIBILITY.

KSZ001>006-013>018-027>032-041>047-300700-
NORTHWEST KANSAS

CITY           SKY/WX    TMP DP  RH WIND       PRES   REMARKS
GOODLAND       MOCLDY    62  60  93 S3        30.27F
6HR MIN TEMP:  62; 6HR MAX TEMP:  74;

HAYS           PTCLDY    66  59  77 NE5       30.22S
HILL CITY      CLOUDY    67  66  97 SE3       30.23S
6HR MIN TEMP:  67; 6HR MAX TEMP:  76;

RUSSELL        CLOUDY    68  67  96 NW5       30.20R
6HR MIN TEMP:  68; 6HR MAX TEMP:  69; 6HR PCP:  0.03;

$$

KSZ061>065-074>080-084>089-300700-
SOUTHWEST KANSAS

CITY           SKY/WX    TMP DP  RH WIND       PRES   REMARKS
DODGE CITY     MOCLDY    69  67  93 CALM      30.23F
6HR MIN TEMP:  67; 6HR MAX TEMP:  77; 6HR PCP: TRACE;

ELKHART          N/A     65  61  87 S7          N/A
GARDEN CITY    MOCLDY    67  65  93 SE5       30.24F
6HR MIN TEMP:  67; 6HR MAX TEMP:  75;

GREAT BEND     PTCLDY    70  61  73 CALM      30.20S
LIBERAL        CLOUDY    70  64  83 CALM      30.26S
PRATT          CLOUDY    67  65  94 CALM      30.20R
6HR MIN TEMP:  66; 6HR MAX TEMP:  68;

$$

KSZ066>073-081>083-090>101-300700-
SOUTHEAST KANSAS

CITY           SKY/WX    TMP DP  RH WIND       PRES   REMARKS
CHANUTE        CLOUDY    75  72  90 CALM      30.14F
6HR MIN TEMP:  74; 6HR MAX TEMP:  84; 6HR PCP:  0.11;

COFFEYVILLE    PTCLDY    73  71  93 NW3       30.13F
6HR MIN TEMP:  73; 6HR MAX TEMP:  82; 6HR PCP:  0.12;

HUTCHINSON     MOCLDY    73  70  90 N8        30.17S
6HR MIN TEMP:  72; 6HR MAX TEMP:  82; 6HR PCP: TRACE;

MEDICINE LODGE   N/A     71  69  93 N3        30.16S
NEWTON         PTCLDY    73  70  90 NE5       30.18R
PARSONS        MOCLDY    72  70  93 CALM      30.15S
6HR MIN TEMP:  72; 6HR MAX TEMP:  80; 6HR PCP:  0.07;

WICHITA INTL   CLOUDY    74  68  81 CALM      30.15S
6HR MIN TEMP:  74; 6HR MAX TEMP:  83;

WICHITA JABRA  CLOUDY    73  72  96 CALM      30.16S
6HR MIN TEMP:  73; 6HR MAX TEMP:  82;

WICHITA MCCONL CLOUDY    77  71  81 SE5       30.15S
WINFIELD       CLOUDY    76  71  85 CALM      30.15S
6HR MIN TEMP:  76; 6HR MAX TEMP:  84;

$$

KSZ007>012-019>026-033>040-048>060-102>105-300700-
NORTHEAST KANSAS

CITY           SKY/WX    TMP DP  RH WIND       PRES   REMARKS
CONCORDIA      LGT RAIN  71  67  87 CALM      30.20S
6HR MIN TEMP:  70; 6HR MAX TEMP:  73; 6HR PCP: TRACE;

EMPORIA        CLOUDY    73  70  90 CALM      30.15F
6HR MIN TEMP:  73; 6HR MAX TEMP:  79;

LAWRENCE       MOCLDY    73  72  96 NW6       30.13F
6HR MIN TEMP:  73; 6HR MAX TEMP:  87;

MANHATTAN      CLOUDY    72  68  87 NE6       30.17S
6HR MIN TEMP:  72; 6HR MAX TEMP:  81;

MARYSVILLE     PTCLDY    70  68  94 NE7       30.17F
OLATHE IND     CLOUDY    77  73  87 N3        30.15F
6HR MIN TEMP:  76; 6HR MAX TEMP:  86;

OLATHE EXE     CLOUDY    74  67  78 SE7       30.16R
6HR MIN TEMP:  74; 6HR MAX TEMP:  85;

SALINA         CLOUDY    73  70  90 NW6       30.18S
6HR MIN TEMP:  73; 6HR MAX TEMP:  75; 6HR PCP: TRACE;

TOPEKA BILLARD PTCLDY    75  72  90 CALM      30.14F
6HR MIN TEMP:  75; 6HR MAX TEMP:  86;

TOPEKA FORBES  PTCLDY    75  72  90 W3        30.15F
6HR MIN TEMP:  75; 6HR MAX TEMP:  87;

$$




USA.gov is the U.S. government's official web portal to all federal, state and local government web resources and services.